Location: Tambov
(52.7163°N, 41.4075°E)
Time: 20:21:34
(UTC+03:00)

Envisat - Pass Details

Date: 06 March 2021
Orbit: 764 x 766 km, 98.1° (Epoch: 17 April)

Event Time Altitude Azimuth Distance (km) Brightness Sun altitude
Rises 06:04:08 0° 15° (NNE) 3,248 6.5 -7.7°
Reaches altitude 10° 06:06:28 10° 17° (NNE) 2,316 5.7 -7.4°
Maximum altitude 06:11:35 80° 104° (ESE) 785 3.2 -6.6°
Drops below altitude 10° 06:16:40 10° 192° (SSW) 2,298 5.4 -5.8°
Sets 06:18:57 0° 193° (SSW) 3,220 6.1 -5.5°
